Location: Antichan
(42.9728°N, 0.6667°E)
Time: 17:13:13
(UTC+00:00)

Cosmos 44 Rocket - Pass Details

Date: 15 August 2020
Orbit: 647 x 743 km, 65.1° (Epoch: 18 September)

Event Time Altitude Azimuth Distance (km) Brightness Sun altitude
Rises 22:36:50 0° 328° (NNW) 3,101 7.8 -30.1°
Reaches altitude 10° 22:39:11 10° 330° (NNW) 2,194 6.8 -30.3°
Enters shadow 22:42:56 50° 347° (NNW) 921 4.1 -30.6°
